Regional Weather Roundup
Issued by NWS Cleveland, OH

Home | Current Version | Previous Version | Graphics & Text | Print | Product List | Glossary On
Versions: 1 2 3 4 5 6 7 8 9 10 11 12 13 14 15 16 17 18 19 20 21 22 23 24 25 26 27 28 29 30 31 32 33 34 35 36 37 38 39 40 41 42 43 44 45 46 47 48 49 50
000
ASUS41 KCLE 100510
RWRCLE
OHIO REGIONAL WEATHER ROUNDUP
NATIONAL WEATHER SERVICE WILMINGTON, OH
1200 AM EST SAT DEC 10 2016

NOTE: "FAIR" INDICATES FEW OR NO CLOUDS BELOW 12,000 FEET WITH NO
SIGNIFICANT WEATHER AND/OR OBSTRUCTIONS TO VISIBILITY.

OHZ001>008-015>018-024>027-034-035-043-044-100600-
   NORTHWEST OHIO

CITY           SKY/WX    TMP DP  RH WIND       PRES   REMARKS
DEFIANCE       CLOUDY    25  14  63 W8        30.47F WCI  16
FINDLAY        CLOUDY    25  15  66 W14       30.45F WCI  13
TOLEDO EXPRESS CLOUDY    24  19  81 W12       30.45S WCI  13
TOLEDO EXEC    CLOUDY    26  19  74 W16       30.45S WCI  14
LIMA           CLOUDY    23  17  78 W12       30.46F WCI  12
$$

OHZ009>014-019>023-028>033-038-089-100600-
   NORTHEAST OHIO

CITY           SKY/WX    TMP DP  RH WIND       PRES   REMARKS
CLE-HOPKINS    CLOUDY    27  19  72 W14       30.44R WCI  16
CLE-LAKEFRONT  LGT SNOW  27  22  81 SW22G29   30.40S WCI  13
CUY CO. ARPT   NOT AVBL
LORAIN-ELYRIA  CLOUDY    25  19  78 W10       30.43S WCI  15
ASHTABULA      LGT SNOW  25  23  92 SW12      30.36S FOG     WCI  14
AKRON-CANTON   LGT SNOW  25  18  74 W14       30.41R WCI  13
WOOSTER        FLURRIES  24  18  77 W14       30.43S WCI  12
MANSFIELD      LGT SNOW  22  19  89 W8        30.42S FOG     WCI  12
YOUNGSTOWN     FLURRIES  25  18  74 W15       30.36F WCI  13
$$

OHZ042-051>053-060>062-070>072-077>081-100600-
  SOUTHWEST OHIO

CITY           SKY/WX    TMP DP  RH WIND       PRES   REMARKS
CINC-COVINGTON MOCLDY    20  14  77 SW5       30.52R WCI  13
CINC-LUNKEN    FAIR      18  15  88 S7        30.56S WCI   9
HAMILTON       FAIR      16  13  88 CALM      30.55R
DAYTON         CLOUDY    21  18  88 SW7       30.49S WCI  12
WRIGHT-PAT AFB FLURRIES  23  20  89 SW6       30.49S WCI  16
DAYTON GENERAL CLOUDY    22  16  78 SW5       30.49S WCI  16
WILMINGTON     FAIR      20  15  81 SW6       30.49S WCI  12
$$

OHZ036-037-039>041-045>050-054>059-063>069-073>076-082>088-100600-
  CENTRAL AND SOUTHEAST OHIO

CITY           SKY/WX    TMP DP  RH WIND       PRES   REMARKS
COLUMBUS       CLOUDY    25  18  74 W10       30.49S WCI  15
OSU AIRPORT    CLOUDY    24  18  77 W9        30.48S WCI  14
BOLTON FIELD   CLOUDY    24  19  81 W6        30.49F WCI  16
RICKENBACK AFB   N/A     22  20  92 SW6       30.49F WCI  14
NEWARK         CLOUDY    25  19  78 SW6       30.47S WCI  18
MARION         CLOUDY    24  18  77 W9        30.46S WCI  14
LANCASTER      CLOUDY    22  19  89 SW6       30.49F WCI  14
ZANESVILLE     CLOUDY    24  18  77 W9        30.48S WCI  14
NEW PHILLY     CLOUDY    25  20  81 W6        30.46S WCI  18
$$



USA.gov is the U.S. government's official web portal to all federal, state and local government web resources and services.